Time,TemperatureF,DewpointF,PressureIn,WindDirection,WindDirectionDegrees,WindSpeedMPH,WindSpeedGustMPH,Humidity,HourlyPrecipIn,Conditions,Clouds,dailyrainin,SolarRadiationWatts/m^2,SoftwareType,DateUTC
2013-01-23 00:04:00,5.1,-6.8,30.14,ENE,73,1.0,1.0,57,0.00,,,0.00,0,Wunderground v.1.15,2013-01-23 05:04:00,
2013-01-23 00:09:00,4.9,-6.7,30.13,NE,40,2.0,2.0,58,0.00,,,0.00,0,Wunderground v.1.15,2013-01-23 05:09:00,
2013-01-23 00:14:00,4.8,-6.8,30.13,ESE,105,1.0,1.0,58,0.00,,,0.00,0,Wunderground v.1.15,2013-01-23 05:14:00,
2013-01-23 00:24:00,4.7,-6.9,30.13,NNE,16,2.0,7.0,58,0.00,,,0.00,0,Wunderground v.1.15,2013-01-23 05:24:00,
2013-01-23 00:29:00,4.8,-6.8,30.13,ENE,70,3.0,7.0,58,0.00,,,0.00,0,Wunderground v.1.15,2013-01-23 05:29:00,
2013-01-23 00:34:00,4.9,-6.7,30.13,NE,46,2.0,3.0,58,0.00,,,0.00,0,Wunderground v.1.15,2013-01-23 05:34:00,
2013-01-23 00:39:00,4.8,-6.8,30.12,NW,306,2.0,3.0,58,0.00,,,0.00,0,Wunderground v.1.15,2013-01-23 05:39:00,
2013-01-23 00:44:00,4.8,-6.8,30.12,SW,221,2.0,5.0,58,0.00,,,0.00,0,Wunderground v.1.15,2013-01-23 05:44:00,
2013-01-23 00:54:00,4.8,-6.8,30.12,NE,47,2.0,2.0,58,0.00,,,0.00,0,Wunderground v.1.15,2013-01-23 05:54:00,
2013-01-23 00:59:00,4.8,-6.8,30.12,NNE,15,1.0,2.0,58,0.00,,,0.00,0,Wunderground v.1.15,2013-01-23 05:59:00,
2013-01-23 01:04:00,4.7,-6.5,30.12,North,355,1.0,1.0,59,0.00,,,0.00,0,Wunderground v.1.15,2013-01-23 06:04:00,
2013-01-23 01:14:00,4.6,-6.6,30.12,NE,35,2.0,2.0,59,0.00,,,0.00,0,Wunderground v.1.15,2013-01-23 06:14:00,
2013-01-23 01:24:00,4.5,-6.3,30.13,ENE,71,1.0,1.0,60,0.00,,,0.00,0,Wunderground v.1.15,2013-01-23 06:24:00,
2013-01-23 01:29:00,4.4,-6.4,30.13,NNW,333,1.0,1.0,60,0.00,,,0.00,0,Wunderground v.1.15,2013-01-23 06:29:00,
2013-01-23 01:39:00,4.1,-6.4,30.14,North,10,1.0,1.0,61,0.00,,,0.00,0,Wunderground v.1.15,2013-01-23 06:39:00,
2013-01-23 01:49:00,3.8,-6.3,30.14,NNE,19,1.0,2.0,62,0.00,,,0.00,0,Wunderground v.1.15,2013-01-23 06:49:00,
2013-01-23 01:59:00,3.6,-6.2,30.15,East,92,1.0,1.0,63,0.00,,,0.00,0,Wunderground v.1.15,2013-01-23 06:59:00,
2013-01-23 02:09:00,3.5,-6.0,30.15,East,101,1.0,1.0,64,0.00,,,0.00,0,Wunderground v.1.15,2013-01-23 07:09:00,
2013-01-23 02:19:00,3.3,-6.2,30.16,ENE,57,0.0,1.0,64,0.00,,,0.00,0,Wunderground v.1.15,2013-01-23 07:19:00,
2013-01-23 02:29:00,3.2,-5.9,30.16,NE,52,1.0,1.0,65,0.00,,,0.00,0,Wunderground v.1.15,2013-01-23 07:29:00,
2013-01-23 02:34:00,3.1,-5.7,30.16,NE,52,0.0,0.0,66,0.00,,,0.00,0,Wunderground v.1.15,2013-01-23 07:34:00,
2013-01-23 02:39:00,2.9,-5.9,30.16,NE,52,0.0,0.0,66,0.00,,,0.00,0,Wunderground v.1.15,2013-01-23 07:39:00,
2013-01-23 02:44:00,2.7,-6.1,30.16,NE,52,0.0,0.0,66,0.00,,,0.00,0,Wunderground v.1.15,2013-01-23 07:44:00,
2013-01-23 02:49:00,2.6,-6.2,30.16,NE,52,0.0,0.0,66,0.00,,,0.00,0,Wunderground v.1.15,2013-01-23 07:49:00,
2013-01-23 02:54:00,2.4,-6.4,30.15,NE,52,0.0,0.0,66,0.00,,,0.00,0,Wunderground v.1.15,2013-01-23 07:54:00,
2013-01-23 02:59:00,2.2,-6.3,30.16,NE,52,0.0,0.0,67,0.00,,,0.00,0,Wunderground v.1.15,2013-01-23 07:59:00,
2013-01-23 03:04:00,2.1,-6.0,30.16,NE,52,0.0,0.0,68,0.00,,,0.00,0,Wunderground v.1.15,2013-01-23 08:04:00,
2013-01-23 03:14:00,1.8,-6.3,30.16,NE,52,0.0,0.0,68,0.00,,,0.00,0,Wunderground v.1.15,2013-01-23 08:14:00,
2013-01-23 03:24:00,1.5,-6.3,30.16,NE,52,1.0,1.0,69,0.00,,,0.00,0,Wunderground v.1.15,2013-01-23 08:24:00,
2013-01-23 03:34:00,1.1,-6.4,30.16,NE,52,1.0,1.0,70,0.00,,,0.00,0,Wunderground v.1.15,2013-01-23 08:34:00,
2013-01-23 03:44:00,1.0,-6.2,30.17,East,100,1.0,1.0,71,0.00,,,0.00,0,Wunderground v.1.15,2013-01-23 08:44:00,
2013-01-23 03:49:00,1.0,-5.9,30.17,ESE,105,1.0,2.0,72,0.00,,,0.00,0,Wunderground v.1.15,2013-01-23 08:49:00,
2013-01-23 03:54:00,1.0,-5.9,30.17,ESE,105,1.0,1.0,72,0.00,,,0.00,0,Wunderground v.1.15,2013-01-23 08:54:00,
2013-01-23 03:59:00,1.0,-5.9,30.16,SE,128,1.0,2.0,72,0.00,,,0.00,0,Wunderground v.1.15,2013-01-23 08:59:00,
2013-01-23 04:09:00,1.1,-5.8,30.16,NNE,15,1.0,1.0,72,0.00,,,0.00,0,Wunderground v.1.15,2013-01-23 09:09:00,
2013-01-23 04:14:00,1.2,-5.7,30.16,North,5,1.0,1.0,72,0.00,,,0.00,0,Wunderground v.1.15,2013-01-23 09:14:00,
2013-01-23 04:19:00,1.1,-5.8,30.16,North,11,0.0,1.0,72,0.00,,,0.00,0,Wunderground v.1.15,2013-01-23 09:19:00,
2013-01-23 04:24:00,1.1,-5.8,30.16,North,11,0.0,2.0,72,0.00,,,0.00,0,Wunderground v.1.15,2013-01-23 09:24:00,
2013-01-23 04:34:00,1.0,-5.6,30.17,North,11,1.0,1.0,73,0.00,,,0.00,0,Wunderground v.1.15,2013-01-23 09:34:00,
2013-01-23 04:39:00,1.0,-5.6,30.17,NNE,13,0.0,1.0,73,0.00,,,0.00,0,Wunderground v.1.15,2013-01-23 09:39:00,
2013-01-23 04:49:00,0.8,-5.8,30.17,NNE,13,0.0,0.0,73,0.00,,,0.00,0,Wunderground v.1.15,2013-01-23 09:49:00,
2013-01-23 04:54:00,0.8,-5.8,30.17,NNE,13,0.0,0.0,73,0.00,,,0.00,0,Wunderground v.1.15,2013-01-23 09:54:00,
2013-01-23 04:59:00,0.7,-5.6,30.17,NNE,13,0.0,0.0,74,0.00,,,0.00,0,Wunderground v.1.15,2013-01-23 09:59:00,
2013-01-23 05:04:00,0.6,-5.7,30.17,NNE,13,0.0,0.0,74,0.00,,,0.00,0,Wunderground v.1.15,2013-01-23 10:04:00,
2013-01-23 05:14:00,0.5,-5.8,30.17,NNE,13,0.0,0.0,74,0.00,,,0.00,0,Wunderground v.1.15,2013-01-23 10:14:00,
2013-01-23 05:19:00,0.4,-5.7,30.17,NNE,13,0.0,0.0,75,0.00,,,0.00,0,Wunderground v.1.15,2013-01-23 10:19:00,
2013-01-23 05:29:00,0.3,-5.8,30.17,SE,128,0.0,0.0,75,0.00,,,0.00,0,Wunderground v.1.15,2013-01-23 10:29:00,
2013-01-23 05:34:00,0.2,-5.9,30.17,SE,136,0.0,1.0,75,0.00,,,0.00,0,Wunderground v.1.15,2013-01-23 10:34:00,
2013-01-23 05:39:00,0.2,-5.6,30.18,SE,136,0.0,1.0,76,0.00,,,0.00,0,Wunderground v.1.15,2013-01-23 10:39:00,
2013-01-23 05:44:00,0.1,-5.7,30.18,NNW,348,1.0,1.0,76,0.00,,,0.00,0,Wunderground v.1.15,2013-01-23 10:44:00,
2013-01-23 05:49:00,0.1,-5.4,30.17,NNW,348,1.0,1.0,77,0.00,,,0.00,0,Wunderground v.1.15,2013-01-23 10:49:00,
2013-01-23 05:59:00,0.1,-5.4,30.17,North,360,0.0,0.0,77,0.00,,,0.00,0,Wunderground v.1.15,2013-01-23 10:59:00,
2013-01-23 06:04:00,0.1,-5.4,30.18,North,360,0.0,1.0,77,0.00,,,0.00,0,Wunderground v.1.15,2013-01-23 11:04:00,
2013-01-23 06:14:00,0.0,-5.2,30.18,North,360,0.0,0.0,78,0.00,,,0.00,0,Wunderground v.1.15,2013-01-23 11:14:00,
2013-01-23 06:19:00,-0.1,-5.3,30.18,North,360,0.0,0.0,78,0.00,,,0.00,0,Wunderground v.1.15,2013-01-23 11:19:00,
2013-01-23 06:24:00,-0.1,-5.3,30.18,North,360,0.0,0.0,78,0.00,,,0.00,0,Wunderground v.1.15,2013-01-23 11:24:00,
2013-01-23 06:29:00,-0.2,-5.4,30.18,North,360,0.0,0.0,78,0.00,,,0.00,0,Wunderground v.1.15,2013-01-23 11:29:00,
2013-01-23 06:39:00,-0.4,-5.6,30.18,North,360,0.0,0.0,78,0.00,,,0.00,0,Wunderground v.1.15,2013-01-23 11:39:00,
2013-01-23 06:44:00,-0.5,-5.7,30.18,North,360,0.0,0.0,78,0.00,,,0.00,0,Wunderground v.1.15,2013-01-23 11:44:00,
2013-01-23 06:49:00,-0.7,-5.7,30.18,North,360,0.0,0.0,79,0.00,,,0.00,0,Wunderground v.1.15,2013-01-23 11:49:00,
2013-01-23 06:54:00,-0.8,-5.7,30.18,North,360,0.0,0.0,79,0.00,,,0.00,0,Wunderground v.1.15,2013-01-23 11:54:00,
2013-01-23 06:59:00,-0.9,-5.8,30.18,North,360,0.0,1.0,79,0.00,,,0.00,0,Wunderground v.1.15,2013-01-23 11:59:00,
2013-01-23 07:04:00,-1.1,-5.8,30.18,North,360,0.0,0.0,80,0.00,,,0.00,0,Wunderground v.1.15,2013-01-23 12:04:00,
2013-01-23 07:14:00,-1.1,-5.8,30.19,North,360,0.0,1.0,80,0.00,,,0.00,5,Wunderground v.1.15,2013-01-23 12:14:00,
2013-01-23 07:19:00,-1.2,-5.6,30.19,North,360,0.0,1.0,81,0.00,,,0.00,7,Wunderground v.1.15,2013-01-23 12:19:00,
2013-01-23 07:24:00,-1.1,-5.5,30.19,ESE,119,0.0,1.0,81,0.00,,,0.00,9,Wunderground v.1.15,2013-01-23 12:24:00,
2013-01-23 07:29:00,-1.1,-5.5,30.19,ESE,118,1.0,1.0,81,0.00,,,0.00,16,Wunderground v.1.15,2013-01-23 12:29:00,
2013-01-23 07:39:00,-0.5,-4.7,30.19,NNE,19,0.0,2.0,82,0.00,,,0.00,23,Wunderground v.1.15,2013-01-23 12:39:00,
2013-01-23 07:49:00,1.0,-3.2,30.19,NE,38,1.0,1.0,82,0.00,,,0.00,46,Wunderground v.1.15,2013-01-23 12:49:00,
2013-01-23 07:54:00,2.0,-2.8,30.19,SSE,163,1.0,2.0,80,0.00,,,0.00,51,Wunderground v.1.15,2013-01-23 12:54:00,
2013-01-23 07:59:00,2.4,-2.9,30.19,WSW,242,1.0,2.0,78,0.00,,,0.00,69,Wunderground v.1.15,2013-01-23 12:59:00,
2013-01-23 08:04:00,2.7,-2.9,30.19,SE,126,1.0,1.0,77,0.00,,,0.00,81,Wunderground v.1.15,2013-01-23 13:04:00,
2013-01-23 08:09:00,3.1,-2.8,30.19,South,170,1.0,2.0,76,0.00,,,0.00,95,Wunderground v.1.15,2013-01-23 13:09:00,
2013-01-23 08:19:00,3.7,-2.5,30.20,ENE,65,1.0,1.0,75,0.00,,,0.00,120,Wunderground v.1.15,2013-01-23 13:19:00,
2013-01-23 08:24:00,4.2,-2.3,30.20,WNW,289,1.0,1.0,74,0.00,,,0.00,134,Wunderground v.1.15,2013-01-23 13:24:00,
2013-01-23 08:34:00,4.7,-2.1,30.20,North,11,2.0,2.0,73,0.00,,,0.00,160,Wunderground v.1.15,2013-01-23 13:34:00,
2013-01-23 08:44:00,5.2,-2.2,30.20,SSW,201,2.0,3.0,71,0.00,,,0.00,185,Wunderground v.1.15,2013-01-23 13:44:00,
2013-01-23 08:49:00,5.5,-2.2,30.20,ENE,69,2.0,3.0,70,0.00,,,0.00,200,Wunderground v.1.15,2013-01-23 13:49:00,
2013-01-23 08:54:00,6.0,-1.7,30.20,ENE,64,2.0,2.0,70,0.00,,,0.00,213,Wunderground v.1.15,2013-01-23 13:54:00,
2013-01-23 08:59:00,5.9,-1.8,30.20,SSE,167,2.0,2.0,70,0.00,,,0.00,229,Wunderground v.1.15,2013-01-23 13:59:00,
2013-01-23 09:04:00,6.2,-1.8,30.20,ENE,61,2.0,2.0,69,0.00,,,0.00,239,Wunderground v.1.15,2013-01-23 14:04:00,
2013-01-23 09:14:00,6.5,-1.5,30.21,North,5,2.0,2.0,69,0.00,,,0.00,269,Wunderground v.1.15,2013-01-23 14:14:00,
2013-01-23 09:19:00,6.8,-1.5,30.21,NE,38,2.0,4.0,68,0.00,,,0.00,285,Wunderground v.1.15,2013-01-23 14:19:00,
2013-01-23 09:29:00,7.2,-1.2,30.21,NNE,30,3.0,5.0,68,0.00,,,0.00,292,Wunderground v.1.15,2013-01-23 14:29:00,
2013-01-23 09:34:00,7.3,-1.4,30.21,NE,35,3.0,3.0,67,0.00,,,0.00,234,Wunderground v.1.15,2013-01-23 14:34:00,
2013-01-23 09:44:00,7.1,-1.9,30.21,WSW,250,2.0,2.0,66,0.00,,,0.00,353,Wunderground v.1.15,2013-01-23 14:44:00,
2013-01-23 09:54:00,7.2,-1.8,30.21,NNE,24,4.0,4.0,66,0.00,,,0.00,396,Wunderground v.1.15,2013-01-23 14:54:00,
2013-01-23 10:04:00,8.0,-1.3,30.21,NNW,344,3.0,3.0,65,0.00,,,0.00,371,Wunderground v.1.15,2013-01-23 15:04:00,
2013-01-23 10:09:00,8.9,-1.5,30.21,NW,304,3.0,4.0,62,0.00,,,0.00,387,Wunderground v.1.15,2013-01-23 15:09:00,
2013-01-23 10:19:00,8.7,-2.0,30.21,North,360,4.0,4.0,61,0.00,,,0.00,381,Wunderground v.1.15,2013-01-23 15:19:00,
2013-01-23 10:29:00,9.7,-1.4,30.21,WNW,298,3.0,4.0,60,0.00,,,0.00,415,Wunderground v.1.15,2013-01-23 15:29:00,
2013-01-23 10:34:00,10.1,-1.4,30.21,ENE,57,2.0,2.0,59,0.00,,,0.00,380,Wunderground v.1.15,2013-01-23 15:34:00,
2013-01-23 10:39:00,10.4,-0.8,30.21,NNE,26,2.0,5.0,60,0.00,,,0.00,434,Wunderground v.1.15,2013-01-23 15:39:00,
2013-01-23 10:44:00,10.1,-2.1,30.21,North,5,4.0,9.0,57,0.00,,,0.00,441,Wunderground v.1.15,2013-01-23 15:44:00,
2013-01-23 10:49:00,9.5,-2.7,30.21,NE,35,5.0,9.0,57,0.00,,,0.00,448,Wunderground v.1.15,2013-01-23 15:49:00,
2013-01-23 10:54:00,9.8,-2.4,30.21,North,360,5.0,5.0,57,0.00,,,0.00,455,Wunderground v.1.15,2013-01-23 15:54:00,
2013-01-23 11:04:00,9.8,-2.8,30.20,NNE,26,4.0,4.0,56,0.00,,,0.00,466,Wunderground v.1.15,2013-01-23 16:04:00,
2013-01-23 11:09:00,10.0,-2.2,30.20,NNW,336,5.0,12.0,57,0.00,,,0.00,457,Wunderground v.1.15,2013-01-23 16:09:00,
2013-01-23 11:14:00,10.4,-1.8,30.20,NW,306,5.0,6.0,57,0.00,,,0.00,490,Wunderground v.1.15,2013-01-23 16:14:00,
2013-01-23 11:19:00,10.7,-1.9,30.19,SSW,205,5.0,6.0,56,0.00,,,0.00,427,Wunderground v.1.15,2013-01-23 16:19:00,
2013-01-23 11:29:00,10.7,-1.9,30.19,NW,311,5.0,9.0,56,0.00,,,0.00,383,Wunderground v.1.15,2013-01-23 16:29:00,
2013-01-23 11:39:00,11.1,-1.9,30.19,NNW,338,8.0,8.0,55,0.00,,,0.00,383,Wunderground v.1.15,2013-01-23 16:39:00,
2013-01-23 11:44:00,11.0,-2.4,30.18,ENE,71,5.0,5.0,54,0.00,,,0.00,383,Wunderground v.1.15,2013-01-23 16:44:00,
2013-01-23 11:54:00,10.8,-2.6,30.18,ESE,104,3.0,3.0,54,0.00,,,0.00,322,Wunderground v.1.15,2013-01-23 16:54:00,
2013-01-23 11:59:00,10.3,-3.1,30.17,East,89,3.0,5.0,54,0.00,,,0.00,190,Wunderground v.1.15,2013-01-23 16:59:00,
2013-01-23 12:04:00,10.4,-2.6,30.17,NE,49,3.0,3.0,55,0.00,,,0.00,459,Wunderground v.1.15,2013-01-23 17:04:00,
2013-01-23 12:09:00,10.6,-2.8,30.17,West,273,3.0,4.0,54,0.00,,,0.00,308,Wunderground v.1.15,2013-01-23 17:09:00,
2013-01-23 12:19:00,10.5,-2.9,30.17,North,9,2.0,7.0,54,0.00,,,0.00,279,Wunderground v.1.15,2013-01-23 17:19:00,
2013-01-23 12:24:00,10.4,-3.0,30.17,NE,38,4.0,4.0,54,0.00,,,0.00,199,Wunderground v.1.15,2013-01-23 17:24:00,
2013-01-23 12:29:00,10.8,-2.2,30.16,WNW,298,5.0,5.0,55,0.00,,,0.00,383,Wunderground v.1.15,2013-01-23 17:29:00,
2013-01-23 12:39:00,10.5,-3.7,30.16,NNE,17,7.0,11.0,52,0.00,,,0.00,343,Wunderground v.1.15,2013-01-23 17:39:00,
2013-01-23 12:44:00,11.0,-3.2,30.16,NNW,345,5.0,5.0,52,0.00,,,0.00,288,Wunderground v.1.15,2013-01-23 17:44:00,
2013-01-23 12:54:00,10.9,-2.9,30.16,North,355,7.0,7.0,53,0.00,,,0.00,482,Wunderground v.1.15,2013-01-23 17:54:00,
2013-01-23 12:59:00,11.3,-2.5,30.16,NNW,329,7.0,7.0,53,0.00,,,0.00,418,Wunderground v.1.15,2013-01-23 17:59:00,
2013-01-23 13:09:00,11.3,-2.9,30.16,NW,304,6.0,6.0,52,0.00,,,0.00,352,Wunderground v.1.15,2013-01-23 18:09:00,
2013-01-23 13:14:00,11.2,-3.0,30.16,NNE,16,5.0,5.0,52,0.00,,,0.00,234,Wunderground v.1.15,2013-01-23 18:14:00,
2013-01-23 13:19:00,10.9,-2.9,30.16,North,350,4.0,5.0,53,0.00,,,0.00,229,Wunderground v.1.15,2013-01-23 18:19:00,
2013-01-23 13:24:00,11.5,-2.0,30.16,WSW,247,3.0,6.0,54,0.00,,,0.00,225,Wunderground v.1.15,2013-01-23 18:24:00,
2013-01-23 13:34:00,10.7,-2.3,30.16,NW,315,5.0,5.0,55,0.00,,,0.00,306,Wunderground v.1.15,2013-01-23 18:34:00,
2013-01-23 13:39:00,10.7,-2.7,30.16,WNW,296,6.0,6.0,54,0.00,,,0.00,241,Wunderground v.1.15,2013-01-23 18:39:00,
2013-01-23 13:49:00,9.9,-2.7,30.15,NE,46,4.0,7.0,56,0.00,,,0.00,127,Wunderground v.1.15,2013-01-23 18:49:00,
2013-01-23 13:54:00,10.1,-2.9,30.16,NNW,344,4.0,5.0,55,0.00,,,0.00,105,Wunderground v.1.15,2013-01-23 18:54:00,
2013-01-23 14:04:00,10.4,-3.8,30.15,NNW,342,4.0,4.0,52,0.00,,,0.00,109,Wunderground v.1.15,2013-01-23 19:04:00,
2013-01-23 14:14:00,10.4,-3.8,30.16,SSE,155,5.0,5.0,52,0.00,,,0.00,105,Wunderground v.1.15,2013-01-23 19:14:00,
2013-01-23 14:19:00,10.6,-2.8,30.16,NNW,348,4.0,5.0,54,0.00,,,0.00,134,Wunderground v.1.15,2013-01-23 19:19:00,
2013-01-23 14:24:00,11.0,-2.4,30.16,NNE,22,4.0,4.0,54,0.00,,,0.00,142,Wunderground v.1.15,2013-01-23 19:24:00,
2013-01-23 14:34:00,11.2,-3.4,30.16,North,360,6.0,10.0,51,0.00,,,0.00,146,Wunderground v.1.15,2013-01-23 19:34:00,
2013-01-23 14:39:00,11.2,-3.9,30.16,NNE,22,5.0,12.0,50,0.00,,,0.00,77,Wunderground v.1.15,2013-01-23 19:39:00,
2013-01-23 14:49:00,11.0,-4.0,30.16,NNE,19,4.0,6.0,50,0.00,,,0.00,97,Wunderground v.1.15,2013-01-23 19:49:00,
2013-01-23 14:54:00,11.0,-4.0,30.16,NW,309,2.0,7.0,50,0.00,,,0.00,95,Wunderground v.1.15,2013-01-23 19:54:00,
2013-01-23 14:59:00,11.0,-4.0,30.16,NNW,344,5.0,7.0,50,0.00,,,0.00,98,Wunderground v.1.15,2013-01-23 19:59:00,
2013-01-23 15:04:00,11.0,-4.0,30.15,NW,315,7.0,7.0,50,0.00,,,0.00,44,Wunderground v.1.15,2013-01-23 20:04:00,
2013-01-23 15:09:00,10.8,-4.2,30.16,NW,317,8.0,8.0,50,0.00,,,0.00,49,Wunderground v.1.15,2013-01-23 20:09:00,
2013-01-23 15:19:00,10.5,-4.5,30.16,WNW,297,6.0,7.0,50,0.00,,,0.00,56,Wunderground v.1.15,2013-01-23 20:19:00,
2013-01-23 15:24:00,10.6,-4.4,30.16,North,350,5.0,5.0,50,0.00,,,0.00,72,Wunderground v.1.15,2013-01-23 20:24:00,
2013-01-23 15:29:00,10.8,-3.8,30.16,NW,325,4.0,5.0,51,0.00,,,0.00,76,Wunderground v.1.15,2013-01-23 20:29:00,
2013-01-23 15:39:00,10.6,-4.0,30.16,NNE,19,6.0,7.0,51,0.00,,,0.00,42,Wunderground v.1.15,2013-01-23 20:39:00,
2013-01-23 15:49:00,10.1,-4.1,30.17,NNE,13,6.0,8.0,52,0.00,,,0.00,30,Wunderground v.1.15,2013-01-23 20:49:00,
2013-01-23 15:54:00,9.8,-3.9,30.17,WNW,283,6.0,8.0,53,0.00,,,0.00,28,Wunderground v.1.15,2013-01-23 20:54:00,
2013-01-23 15:59:00,9.6,-4.1,30.17,North,10,4.0,8.0,53,0.00,,,0.00,26,Wunderground v.1.15,2013-01-23 20:59:00,
2013-01-23 16:04:00,9.5,-4.2,30.17,NNE,19,3.0,3.0,53,0.00,,,0.00,32,Wunderground v.1.15,2013-01-23 21:04:00,
2013-01-23 16:14:00,9.6,-3.7,30.17,North,5,6.0,6.0,54,0.00,,,0.00,33,Wunderground v.1.15,2013-01-23 21:14:00,
2013-01-23 16:19:00,9.6,-4.1,30.17,NE,35,6.0,6.0,53,0.00,,,0.00,26,Wunderground v.1.15,2013-01-23 21:19:00,
2013-01-23 16:29:00,9.6,-4.1,30.17,NNW,342,5.0,8.0,53,0.00,,,0.00,18,Wunderground v.1.15,2013-01-23 21:29:00,
2013-01-23 16:34:00,9.4,-3.9,30.17,North,5,5.0,5.0,54,0.00,,,0.00,14,Wunderground v.1.15,2013-01-23 21:34:00,
2013-01-23 16:39:00,9.2,-4.5,30.17,NNE,12,4.0,5.0,53,0.00,,,0.00,11,Wunderground v.1.15,2013-01-23 21:39:00,
2013-01-23 16:44:00,9.1,-4.6,30.17,NNE,30,4.0,4.0,53,0.00,,,0.00,9,Wunderground v.1.15,2013-01-23 21:44:00,
2013-01-23 16:49:00,8.9,-4.4,30.17,North,355,3.0,6.0,54,0.00,,,0.00,7,Wunderground v.1.15,2013-01-23 21:49:00,
2013-01-23 16:59:00,8.8,-4.5,30.17,NNE,25,4.0,4.0,54,0.00,,,0.00,5,Wunderground v.1.15,2013-01-23 21:59:00,
2013-01-23 17:04:00,8.5,-4.4,30.17,NNE,17,3.0,3.0,55,0.00,,,0.00,0,Wunderground v.1.15,2013-01-23 22:04:00,
2013-01-23 17:09:00,8.3,-4.2,30.17,NNW,344,3.0,3.0,56,0.00,,,0.00,0,Wunderground v.1.15,2013-01-23 22:09:00,
2013-01-23 17:14:00,8.1,-4.0,30.17,NNW,340,4.0,4.0,57,0.00,,,0.00,0,Wunderground v.1.15,2013-01-23 22:14:00,
2013-01-23 17:19:00,8.0,-4.1,30.18,NNW,346,4.0,4.0,57,0.00,,,0.00,0,Wunderground v.1.15,2013-01-23 22:19:00,
2013-01-23 17:24:00,7.9,-3.8,30.18,North,360,4.0,9.0,58,0.00,,,0.00,0,Wunderground v.1.15,2013-01-23 22:24:00,
2013-01-23 17:34:00,7.8,-3.2,30.18,North,5,4.0,4.0,60,0.00,,,0.00,0,Wunderground v.1.15,2013-01-23 22:34:00,
2013-01-23 17:44:00,7.2,-3.4,30.18,NNE,15,2.0,4.0,61,0.00,,,0.00,0,Wunderground v.1.15,2013-01-23 22:44:00,
2013-01-23 17:49:00,7.1,-3.5,30.18,NW,316,3.0,5.0,61,0.00,,,0.00,0,Wunderground v.1.15,2013-01-23 22:49:00,
2013-01-23 17:59:00,6.7,-3.9,30.19,NNW,333,2.0,3.0,61,0.00,,,0.00,0,Wunderground v.1.15,2013-01-23 22:59:00,
2013-01-23 18:04:00,6.6,-3.7,30.19,NNE,18,1.0,1.0,62,0.00,,,0.00,0,Wunderground v.1.15,2013-01-23 23:04:00,
2013-01-23 18:09:00,6.4,-3.9,30.19,NNW,348,2.0,4.0,62,0.00,,,0.00,0,Wunderground v.1.15,2013-01-23 23:09:00,
2013-01-23 18:14:00,6.5,-3.8,30.19,NNE,22,3.0,3.0,62,0.00,,,0.00,0,Wunderground v.1.15,2013-01-23 23:14:00,
2013-01-23 18:19:00,6.6,-3.7,30.19,NW,316,3.0,5.0,62,0.00,,,0.00,0,Wunderground v.1.15,2013-01-23 23:19:00,
2013-01-23 18:29:00,6.6,-3.7,30.19,North,355,3.0,5.0,62,0.00,,,0.00,0,Wunderground v.1.15,2013-01-23 23:29:00,
2013-01-23 18:34:00,6.5,-3.8,30.19,WNW,290,2.0,2.0,62,0.00,,,0.00,0,Wunderground v.1.15,2013-01-23 23:34:00,
2013-01-23 18:39:00,6.4,-3.9,30.20,NE,40,1.0,4.0,62,0.00,,,0.00,0,Wunderground v.1.15,2013-01-23 23:39:00,
2013-01-23 18:44:00,6.3,-4.0,30.20,ENE,59,2.0,2.0,62,0.00,,,0.00,0,Wunderground v.1.15,2013-01-23 23:44:00,
2013-01-23 18:49:00,6.4,-3.9,30.20,ENE,58,2.0,2.0,62,0.00,,,0.00,0,Wunderground v.1.15,2013-01-23 23:49:00,
2013-01-23 18:59:00,6.2,-4.1,30.20,North,355,1.0,2.0,62,0.00,,,0.00,0,Wunderground v.1.15,2013-01-23 23:59:00,
2013-01-23 19:09:00,6.0,-4.2,30.20,NNW,336,2.0,3.0,62,0.00,,,0.00,0,Wunderground v.1.15,2013-01-24 00:09:00,
2013-01-23 19:14:00,5.8,-4.1,30.20,NNE,16,3.0,3.0,63,0.00,,,0.00,0,Wunderground v.1.15,2013-01-24 00:14:00,
2013-01-23 19:24:00,5.7,-4.2,30.20,NW,308,2.0,2.0,63,0.00,,,0.00,0,Wunderground v.1.15,2013-01-24 00:24:00,
2013-01-23 19:34:00,5.5,-4.4,30.20,NNW,348,2.0,2.0,63,0.00,,,0.00,0,Wunderground v.1.15,2013-01-24 00:34:00,
2013-01-23 19:39:00,5.4,-4.5,30.20,NNW,348,2.0,2.0,63,0.00,,,0.00,0,Wunderground v.1.15,2013-01-24 00:39:00,
2013-01-23 19:49:00,5.2,-4.3,30.20,NNW,348,0.0,0.0,64,0.00,,,0.00,0,Wunderground v.1.15,2013-01-24 00:49:00,
2013-01-23 19:54:00,5.0,-4.5,30.20,NNW,348,0.0,0.0,64,0.00,,,0.00,0,Wunderground v.1.15,2013-01-24 00:54:00,
2013-01-23 19:59:00,4.8,-4.7,30.20,NNW,348,0.0,0.0,64,0.00,,,0.00,0,Wunderground v.1.15,2013-01-24 00:59:00,
2013-01-23 20:04:00,4.5,-5.0,30.20,NNW,348,0.0,0.0,64,0.00,,,0.00,0,Wunderground v.1.15,2013-01-24 01:04:00,
2013-01-23 20:09:00,4.2,-4.7,30.20,NNW,348,0.0,0.0,66,0.00,,,0.00,0,Wunderground v.1.15,2013-01-24 01:09:00,
2013-01-23 20:19:00,3.8,-5.0,30.20,NNW,348,0.0,1.0,66,0.00,,,0.00,0,Wunderground v.1.15,2013-01-24 01:19:00,
2013-01-23 20:24:00,3.6,-5.2,30.20,NNW,348,0.0,0.0,66,0.00,,,0.00,0,Wunderground v.1.15,2013-01-24 01:24:00,
2013-01-23 20:34:00,3.4,-5.1,30.20,NNW,348,0.0,0.0,67,0.00,,,0.00,0,Wunderground v.1.15,2013-01-24 01:34:00,
2013-01-23 20:39:00,3.3,-5.2,30.21,NNW,348,0.0,1.0,67,0.00,,,0.00,0,Wunderground v.1.15,2013-01-24 01:39:00,
2013-01-23 20:44:00,3.2,-5.3,30.20,NNW,348,0.0,0.0,67,0.00,,,0.00,0,Wunderground v.1.15,2013-01-24 01:44:00,
2013-01-23 20:54:00,2.9,-5.6,30.20,NNW,348,0.0,2.0,67,0.00,,,0.00,0,Wunderground v.1.15,2013-01-24 01:54:00,
2013-01-23 20:59:00,2.8,-5.7,30.20,NNW,348,1.0,2.0,67,0.00,,,0.00,0,Wunderground v.1.15,2013-01-24 01:59:00,
2013-01-23 21:04:00,2.7,-5.8,30.20,NNW,348,1.0,1.0,67,0.00,,,0.00,0,Wunderground v.1.15,2013-01-24 02:04:00,
2013-01-23 21:09:00,2.6,-5.9,30.20,NNW,348,1.0,1.0,67,0.00,,,0.00,0,Wunderground v.1.15,2013-01-24 02:09:00,
2013-01-23 21:14:00,2.5,-6.0,30.20,NNW,348,1.0,1.0,67,0.00,,,0.00,0,Wunderground v.1.15,2013-01-24 02:14:00,
2013-01-23 21:19:00,2.4,-5.8,30.20,NNW,348,1.0,1.0,68,0.00,,,0.00,0,Wunderground v.1.15,2013-01-24 02:19:00,
2013-01-23 21:29:00,2.1,-6.0,30.20,NNW,348,1.0,2.0,68,0.00,,,0.00,0,Wunderground v.1.15,2013-01-24 02:29:00,
2013-01-23 21:34:00,2.0,-6.1,30.20,NNW,348,1.0,1.0,68,0.00,,,0.00,0,Wunderground v.1.15,2013-01-24 02:34:00,
2013-01-23 21:44:00,1.8,-6.6,30.21,NNW,348,1.0,1.0,67,0.00,,,0.00,0,Wunderground v.1.15,2013-01-24 02:44:00,
2013-01-23 21:49:00,1.7,-6.4,30.20,NNW,348,1.0,1.0,68,0.00,,,0.00,0,Wunderground v.1.15,2013-01-24 02:49:00,
2013-01-23 21:59:00,1.7,-6.4,30.21,NNW,348,0.0,1.0,68,0.00,,,0.00,0,Wunderground v.1.15,2013-01-24 02:59:00,
2013-01-23 22:09:00,1.5,-6.6,30.21,NNW,348,1.0,1.0,68,0.00,,,0.00,0,Wunderground v.1.15,2013-01-24 03:09:00,
2013-01-23 22:14:00,1.4,-6.7,30.20,NNW,348,1.0,1.0,68,0.00,,,0.00,0,Wunderground v.1.15,2013-01-24 03:14:00,
2013-01-23 22:24:00,1.4,-6.7,30.20,NNW,348,0.0,0.0,68,0.00,,,0.00,0,Wunderground v.1.15,2013-01-24 03:24:00,
2013-01-23 22:29:00,1.3,-6.8,30.21,NNW,348,0.0,0.0,68,0.00,,,0.00,0,Wunderground v.1.15,2013-01-24 03:29:00,
2013-01-23 22:39:00,1.1,-7.0,30.21,NNW,348,0.0,0.0,68,0.00,,,0.00,0,Wunderground v.1.15,2013-01-24 03:39:00,
2013-01-23 22:49:00,1.0,-6.8,30.21,NNW,348,0.0,0.0,69,0.00,,,0.00,0,Wunderground v.1.15,2013-01-24 03:49:00,
2013-01-23 22:59:00,0.9,-6.9,30.20,NNW,348,0.0,0.0,69,0.00,,,0.00,0,Wunderground v.1.15,2013-01-24 03:59:00,
2013-01-23 23:09:00,0.8,-7.3,30.21,NNW,348,1.0,2.0,68,0.00,,,0.00,0,Wunderground v.1.15,2013-01-24 04:09:00,
2013-01-23 23:19:00,0.7,-7.1,30.21,NNW,348,1.0,2.0,69,0.00,,,0.00,0,Wunderground v.1.15,2013-01-24 04:19:00,
2013-01-23 23:24:00,0.7,-7.1,30.21,NNW,348,1.0,1.0,69,0.00,,,0.00,0,Wunderground v.1.15,2013-01-24 04:24:00,
2013-01-23 23:29:00,0.7,-7.1,30.21,NNW,348,1.0,1.0,69,0.00,,,0.00,0,Wunderground v.1.15,2013-01-24 04:29:00,
2013-01-23 23:34:00,0.6,-7.2,30.21,NNW,348,0.0,0.0,69,0.00,,,0.00,0,Wunderground v.1.15,2013-01-24 04:34:00,
2013-01-23 23:39:00,0.5,-7.3,30.21,NNW,348,1.0,1.0,69,0.00,,,0.00,0,Wunderground v.1.15,2013-01-24 04:39:00,
2013-01-23 23:44:00,0.5,-7.3,30.21,NNW,348,1.0,1.0,69,0.00,,,0.00,0,Wunderground v.1.15,2013-01-24 04:44:00,
2013-01-23 23:54:00,0.4,-7.4,30.20,NNW,348,0.0,0.0,69,0.00,,,0.00,0,Wunderground v.1.15,2013-01-24 04:54:00,
2013-01-23 23:59:00,0.3,-7.2,30.20,NNW,348,0.0,0.0,70,0.00,,,0.00,0,Wunderground v.1.15,2013-01-24 04:59:00,